Change the Weather History Date:

Monday, March 10, 2014

  Actual Average Record
Temperature  
Mean Temperature 44 °F -  
Max Temperature 51 °F 0 °F 60 °F (2012)
Min Temperature 38 °F - -4 °F (2003)
Degree Days  
Heating Degree Days 20    
Moisture  
Dew Point 35 °F    
Average Humidity 72    
Maximum Humidity 93    
Minimum Humidity 53    
Precipitation  
Precipitation 0.00 in - - ()
Sea Level Pressure  
Sea Level Pressure 29.66 in    
Wind  
Wind Speed 16 mph (WSW)    
Max Wind Speed 20 mph    
Max Gust Speed 26 mph    
Visibility 10 miles    
Events      
Averages and records for this station are not official NWS values.
T = Trace of Precipitation, MM = Missing Value Source: NWS Daily Summary

Daily Weather History Graph

Daily Weather History Graph

Search for Another Location

Airport or City:

Trip Planner

Search our weather history database for the weather conditions in past years. The results will help you decide how hot, cold, wet, or windy it might be!

Date:

Astronomy

Mar. 10, 2014 Rise Set
Actual Time 7:18 AM CDT 6:58 PM CDT
Civil Twilight 6:50 AM CDT 7:27 PM CDT
Nautical Twilight 6:18 AM CDT 7:59 PM CDT
Astronomical Twilight 5:45 AM CDT 8:32 PM CDT
Moon 1:37 PM CDT (3/10) 3:36 AM CDT (3/10)
Length of Visible Light 12h 36m
Length of Day
11h 40m
Waxing Gibbous, 70% of the Moon is Illuminated
Mar 10
Waxing Gibbous
Mar 16
Full
Mar 23
Last Quarter
Mar 30
New
Apr 7
First Quarter

Hourly Weather History & Observations

Time (CDT) Temp. Windchill Dew Point Humidity Pressure Visibility Wind Dir Wind Speed Gust Speed Precip Events Conditions
12:15 AM 39.2 °F 29.6 °F 37.4 °F 93% 29.72 in 10.0 mi SW 19.6 mph 26.5 mph N/A   Mostly Cloudy
12:35 AM 39.4 °F 29.8 °F 37.6 °F 93% 29.71 in 10.0 mi SW 19.6 mph - N/A   Scattered Clouds
12:55 AM 39.7 °F 30.9 °F 37.4 °F 91% 29.71 in 10.0 mi SW 17.3 mph 25.3 mph N/A   Scattered Clouds
1:15 AM 39.7 °F 30.9 °F 37.4 °F 91% 29.70 in 10.0 mi SW 17.3 mph 24.2 mph N/A   Scattered Clouds
1:35 AM 39.6 °F 30.6 °F 37.4 °F 92% 29.70 in 10.0 mi SW 17.3 mph - N/A   Scattered Clouds
2:00 AM 39.6 °F 31.3 °F 37.2 °F 91% 29.71 in 10.0 mi SW 15.0 mph - N/A   Clear
2:15 AM 39.6 °F 31.7 °F 37.2 °F 91% 29.70 in 10.0 mi SW 13.8 mph - N/A   Scattered Clouds
2:35 AM 39.4 °F 30.7 °F 37.0 °F 91% 29.71 in 10.0 mi SW 16.1 mph - N/A   Scattered Clouds
2:55 AM 39.6 °F 31.0 °F 37.0 °F 91% 29.70 in 10.0 mi SW 16.1 mph - N/A   Mostly Cloudy
3:15 AM 39.2 °F 30.8 °F 37.0 °F 92% 29.70 in 10.0 mi WSW 15.0 mph - N/A   Scattered Clouds
3:35 AM 39.2 °F 31.2 °F 37.0 °F 92% 29.69 in 10.0 mi WSW 13.8 mph - N/A   Scattered Clouds
3:55 AM 38.8 °F 30.4 °F 37.0 °F 93% 29.69 in 10.0 mi SW 15.0 mph - N/A   Mostly Cloudy
4:20 AM 39.0 °F 31.0 °F 37.0 °F 93% 29.68 in 10.0 mi SW 13.8 mph - N/A   Overcast
4:35 AM 39.2 °F 31.2 °F 37.0 °F 92% 29.66 in 10.0 mi SW 13.8 mph - N/A   Overcast
4:55 AM 39.4 °F 31.1 °F 36.9 °F 91% 29.66 in 10.0 mi SW 15.0 mph - N/A   Mostly Cloudy
5:15 AM 40.1 °F 31.6 °F 36.1 °F 86% 29.66 in 10.0 mi SW 16.1 mph - N/A   Scattered Clouds
5:35 AM 39.7 °F 30.6 °F 35.8 °F 86% 29.67 in 10.0 mi WSW 18.4 mph - N/A   Mostly Cloudy
5:55 AM 39.2 °F 29.8 °F 36.0 °F 88% 29.67 in 10.0 mi WSW 18.4 mph - N/A   Scattered Clouds
6:15 AM 39.6 °F 30.6 °F 35.8 °F 86% 29.66 in 10.0 mi SW 17.3 mph - N/A   Clear
6:35 AM 39.2 °F 30.2 °F 35.2 °F 86% 29.66 in 10.0 mi SW 17.3 mph - N/A   Clear
6:55 AM 39.4 °F 31.1 °F 34.5 °F 83% 29.66 in 10.0 mi SW 15.0 mph - N/A   Clear
7:15 AM 38.8 °F 30.8 °F 35.1 °F 86% 29.66 in 10.0 mi SW 13.8 mph - N/A   Clear
7:35 AM 38.7 °F 30.1 °F 35.8 °F 89% 29.66 in 10.0 mi SW 15.0 mph - N/A   Clear
7:55 AM 39.4 °F 30.7 °F 34.7 °F 83% 29.66 in 10.0 mi SW 16.1 mph - N/A   Clear
8:15 AM 39.7 °F 30.9 °F 34.0 °F 80% 29.66 in 10.0 mi SW 17.3 mph - N/A   Clear
8:35 AM 40.5 °F 31.8 °F 32.4 °F 73% 29.66 in 10.0 mi SW 17.3 mph - N/A   Clear
8:55 AM 40.8 °F 32.6 °F 32.2 °F 71% 29.66 in 10.0 mi SW 16.1 mph - N/A   Clear
9:15 AM 41.9 °F 33.7 °F 32.4 °F 69% 29.66 in 10.0 mi SW 17.3 mph - N/A   Clear
9:30 AM 42.3 °F 33.8 °F 32.4 °F 68% 29.66 in 10.0 mi SW 18.4 mph - N/A   Clear
9:55 AM 42.8 °F 34.8 °F 32.5 °F 67% 29.66 in 10.0 mi WSW 17.3 mph - N/A   Clear
10:20 AM 43.7 °F 36.0 °F 32.9 °F 66% 29.66 in 10.0 mi WSW 17.3 mph - N/A   Clear
10:35 AM 43.9 °F 36.2 °F 32.9 °F 65% 29.66 in 10.0 mi WSW 17.3 mph - N/A   Clear
11:00 AM 45.5 °F 38.1 °F 32.9 °F 61% 29.66 in 10.0 mi WSW 18.4 mph - N/A   Clear
11:15 AM 46.4 °F 39.5 °F 32.9 °F 59% 29.66 in 10.0 mi WSW 17.3 mph - N/A   Clear
11:35 AM 47.3 °F - 33.3 °F 58% 29.66 in 10.0 mi WSW 16.1 mph - N/A   Clear
11:55 AM 47.7 °F - 33.1 °F 57% 29.66 in 10.0 mi WSW 16.1 mph - N/A   Clear
12:20 PM 48.2 °F - 33.1 °F 56% 29.66 in 10.0 mi WSW 18.4 mph - N/A   Clear
12:35 PM 48.4 °F - 33.3 °F 56% 29.66 in 10.0 mi WSW 16.1 mph - N/A   Clear
12:55 PM 47.7 °F - 33.1 °F 57% 29.66 in 10.0 mi WSW 15.0 mph - N/A   Clear
1:15 PM 48.7 °F - 33.8 °F 56% 29.65 in 10.0 mi WSW 16.1 mph - N/A   Clear
1:35 PM 50.2 °F - 34.2 °F 54% 29.64 in 10.0 mi WSW 16.1 mph - N/A   Clear
1:55 PM 50.9 °F - 34.3 °F 53% 29.63 in 10.0 mi WSW 13.8 mph - N/A   Clear
2:15 PM 50.9 °F - 34.2 °F 53% 29.63 in 10.0 mi WSW 16.1 mph - N/A   Clear
2:35 PM 50.5 °F - 34.7 °F 55% 29.63 in 10.0 mi WSW 13.8 mph - N/A   Clear
2:55 PM 51.8 °F - 34.9 °F 53% 29.62 in 10.0 mi SW 13.8 mph - N/A   Clear
3:15 PM 50.9 °F - 34.7 °F 54% 29.62 in 10.0 mi SW 13.8 mph - N/A   Clear
3:35 PM 50.9 °F - 34.7 °F 54% 29.63 in 10.0 mi WSW 15.0 mph - N/A   Clear
3:55 PM 51.1 °F - 34.9 °F 54% 29.63 in 10.0 mi SW 16.1 mph - N/A   Clear
4:15 PM 51.4 °F - 34.7 °F 53% 29.63 in 10.0 mi WSW 18.4 mph - N/A   Clear
4:40 PM 51.6 °F - 35.1 °F 53% 29.63 in 10.0 mi WSW 17.3 mph - N/A   Clear
4:55 PM 51.8 °F - 35.1 °F 53% 29.63 in 10.0 mi WSW 16.1 mph - N/A   Clear
5:20 PM 51.4 °F - 35.1 °F 54% 29.63 in 10.0 mi SW 13.8 mph - N/A   Clear
5:35 PM 50.2 °F - 35.2 °F 57% 29.63 in 10.0 mi WSW 12.7 mph - N/A   Clear
5:55 PM 49.1 °F - 34.7 °F 58% 29.64 in 10.0 mi WSW 13.8 mph - N/A   Clear
6:15 PM 47.1 °F - 34.2 °F 61% 29.64 in 10.0 mi WSW 15.0 mph - N/A   Clear
6:35 PM 46.8 °F - 34.2 °F 62% 29.65 in 10.0 mi WSW 15.0 mph - N/A   Clear
6:55 PM 46.0 °F 39.6 °F 34.2 °F 63% 29.65 in 10.0 mi WSW 15.0 mph - N/A   Clear
7:15 PM 45.1 °F 38.8 °F 33.8 °F 65% 29.65 in 10.0 mi WSW 13.8 mph - N/A   Clear
7:35 PM 44.8 °F 38.3 °F 34.0 °F 66% 29.66 in 10.0 mi WSW 13.8 mph - N/A   Clear
7:55 PM 44.1 °F 37.7 °F 34.0 °F 68% 29.65 in 10.0 mi WSW 12.7 mph - N/A   Clear
8:15 PM 43.7 °F 37.7 °F 34.0 °F 69% 29.66 in 10.0 mi WSW 11.5 mph - N/A   Clear
8:35 PM 43.7 °F 36.6 °F 34.0 °F 69% 29.67 in 10.0 mi West 15.0 mph - N/A   Clear
8:55 PM 43.9 °F 36.8 °F 33.8 °F 68% 29.67 in 10.0 mi West 15.0 mph - N/A   Clear
9:15 PM 43.0 °F 35.4 °F 33.8 °F 70% 29.68 in 10.0 mi West 16.1 mph - N/A   Clear
9:35 PM 43.7 °F 36.0 °F 33.8 °F 68% 29.68 in 10.0 mi West 17.3 mph - N/A   Clear
9:55 PM 43.7 °F 36.0 °F 33.8 °F 68% 29.67 in 10.0 mi West 17.3 mph - N/A   Clear
10:15 PM 42.1 °F 33.9 °F 33.6 °F 72% 29.68 in 10.0 mi West 17.3 mph - N/A   Clear
10:35 PM 42.6 °F 34.9 °F 33.4 °F 70% 29.68 in 10.0 mi West 16.1 mph - N/A   Clear
10:55 PM 42.8 °F 35.4 °F 33.6 °F 70% 29.68 in 10.0 mi West 15.0 mph - N/A   Clear
11:15 PM 41.5 °F 33.8 °F 33.6 °F 73% 29.68 in 10.0 mi West 15.0 mph - N/A   Mostly Cloudy
11:35 PM 40.3 °F 31.9 °F 33.6 °F 77% 29.67 in 10.0 mi West 16.1 mph - N/A   Overcast
11:55 PM 41.9 °F 34.0 °F 33.6 °F 72% 29.67 in 10.0 mi West 16.1 mph - N/A   Overcast